Theta_e
343 336 334 328 311 314 311 314 323 320 323 331 327 322 321 332 328 324 341 344 345 346 357 362 365 366 366 364 364 364 363 363 363 363 362 362 363 363 364 364 363 361 358 357 355 354 354 353 350
329 328 330 318 310 307 310 317 317 322 327 332 332 324 322 330 340 340 335 345 345 350 354 360 365 365 366 365 364 363 363 363 363 362 362 362 363 363 362 361 360 358 356 355 353 352 351 350 351
325 329 320 314 311 307 309 318 322 327 328 327 327 333 329 330 340 342 342 345 344 347 353 361 364 365 365 365 364 363 362 362 362 362 362 362 362 361 360 359 358 355 353 351 350 348 348 351 353
325 325 319 309 309 314 315 319 322 323 328 329 328 328 336 347 341 348 343 343 341 341 353 362 364 364 364 364 363 362 362 361 361 361 361 360 360 359 358 357 356 353 350 348 349 351 352 354 356
325 320 311 309 312 316 319 321 321 318 324 328 330 327 333 347 351 349 344 343 340 339 355 359 363 364 363 363 362 362 361 361 361 361 360 359 358 358 357 356 354 352 349 352 353 355 357 358 359
316 317 308 307 312 317 321 323 321 318 321 328 329 329 339 350 349 350 347 345 340 348 351 355 362 363 362 362 361 361 360 360 360 360 360 359 358 356 356 355 354 352 353 353 355 357 358 357 358
312 310 307 310 311 315 319 324 321 319 319 324 332 327 341 343 350 351 348 348 341 351 347 351 355 360 362 361 360 360 360 360 361 361 360 358 358 357 356 355 355 354 353 354 356 352 351 353 351
314 310 306 309 310 312 320 323 325 321 320 335 335 327 333 336 350 350 348 347 345 349 344 344 350 352 353 355 361 360 360 361 361 361 359 359 358 356 356 356 356 354 354 355 345 346 346 348 349
317 305 303 305 308 312 318 320 325 327 322 328 333 333 346 350 349 347 345 345 347 349 345 342 342 344 344 346 355 360 359 360 360 358 359 355 350 351 351 355 358 357 354 350 347 346 347 346 348
310 305 304 309 311 311 315 316 322 322 321 321 327 333 344 348 346 343 342 343 345 347 346 344 343 342 340 342 353 352 353 354 353 350 353 351 350 354 350 358 358 355 352 350 348 347 347 347 338
311 306 310 311 312 313 312 313 317 320 318 321 322 325 336 343 342 341 342 344 344 346 350 346 347 348 343 344 347 345 348 348 349 353 355 352 353 360 358 356 349 350 348 342 343 341 339 333 331
307 311 312 312 313 312 311 313 313 318 320 325 324 328 336 338 339 339 342 344 345 346 350 350 351 350 349 349 343 345 345 347 349 355 358 358 361 355 361 347 346 343 340 336 338 333 334 334 331
308 310 312 313 313 312 313 311 312 314 320 324 325 324 330 335 339 343 343 345 346 346 348 349 353 355 363 351 347 348 350 350 355 356 356 358 360 351 348 346 341 337 337 334 334 334 334 332 330
311 310 311 312 311 312 310 310 312 314 318 319 322 323 323 334 338 343 346 345 347 348 349 349 353 360 361 357 353 354 357 358 354 354 353 358 354 350 347 342 341 338 337 336 332 333 332 330 328
310 305 308 309 310 309 312 307 307 313 315 315 318 323 323 324 339 342 345 350 353 352 352 356 356 358 363 364 362 361 355 352 360 359 357 358 350 349 344 341 339 337 337 336 335 334 335 331 332
306 306 301 307 309 310 309 301 309 313 313 312 315 319 324 325 328 342 348 350 350 351 352 356 352 356 363 365 361 356 357 356 357 352 356 348 350 348 347 338 338 338 337 336 335 332 332 329 333
304 298 301 303 309 308 307 303 309 312 313 313 314 316 321 322 327 337 345 350 352 354 352 351 355 354 359 362 356 358 359 360 354 349 348 347 344 341 343 341 339 340 336 335 334 335 331 332 332
298 299 301 301 306 307 305 304 309 311 312 312 313 314 316 322 325 332 344 350 353 353 353 352 354 357 359 356 357 356 358 360 348 344 343 348 341 338 344 341 338 341 337 336 336 336 335 331 331
303 301 300 304 308 306 305 306 307 310 311 311 313 314 315 318 326 329 340 350 351 353 354 354 358 360 354 352 349 352 351 349 343 344 342 344 339 340 344 339 340 341 337 336 336 337 330 329 335
303 301 300 304 307 306 305 304 308 310 311 312 312 314 315 319 323 326 343 348 348 350 350 351 353 356 354 352 351 355 351 347 341 340 341 341 340 341 340 340 341 339 337 337 336 337 335 329 332
301 300 300 300 304 305 304 301 305 308 311 312 314 315 316 317 318 324 345 347 346 346 347 347 348 357 353 356 356 360 351 345 339 337 337 339 339 339 342 340 340 339 341 337 337 336 335 331 330
298 304 303 301 299 294 303 294 303 306 307 310 312 313 314 316 318 321 340 341 344 348 345 346 347 352 354 357 353 354 343 336 337 335 335 337 337 337 342 341 340 339 339 336 335 335 337 336 328
301 305 303 302 299 299 298 295 300 306 305 308 311 313 314 316 317 318 327 338 344 342 346 345 342 343 350 351 353 353 349 342 343 336 336 334 338 338 337 342 341 342 340 341 337 336 336 334 331
307 303 302 301 299 293 297 296 297 301 305 308 311 313 315 316 316 318 320 346 347 347 348 348 348 349 349 341 343 347 347 341 340 335 332 332 334 335 337 339 341 344 344 338 337 336 335 334 333
304 300 292 290 291 290 299 296 299 306 307 309 312 315 318 319 319 320 321 336 346 345 347 347 349 346 346 339 341 349 347 344 340 338 331 330 331 332 336 338 340 341 343 340 340 337 334 336 332
301 300 294 286 288 291 299 294 299 309 310 312 314 316 318 319 320 321 323 325 325 345 341 345 347 350 350 348 348 349 347 342 334 340 334 332 329 331 336 338 339 340 341 340 339 338 337 335 333
301 297 303 296 297 293 297 300 305 308 309 311 312 314 317 318 319 319 322 325 329 331 338 325 348 350 351 350 346 342 347 342 337 338 337 333 332 332 335 338 339 341 340 340 339 337 337 335 334
302 304 295 297 288 287 293 296 298 304 308 309 311 313 316 317 318 320 322 328 330 331 334 343 325 348 349 349 349 346 346 342 340 343 335 336 338 336 335 337 338 339 339 339 338 338 337 335 335
296 295 298 298 296 289 288 293 304 307 310 309 307 312 315 316 318 320 322 327 328 330 332 333 343 351 349 349 348 347 343 339 340 342 339 335 339 338 335 336 337 337 336 338 338 338 334 332 334
296 295 296 291 290 294 294 294 307 308 309 308 309 309 310 315 318 320 322 324 326 327 329 332 334 335 347 344 342 345 343 341 341 346 340 338 341 337 335 335 335 336 334 336 334 333 331 331 331
Wind_Speed
8 11 10 11 8 9 19 17 15 9 6 4 10 9 11 23 8 12 15 24 26 23 18 19 19 19 16 16 15 15 14 13 12 12 12 11 9 9 9 9 9 8 7 7 6 6 5 5 5
11 16 10 7 11 15 10 16 27 12 12 7 6 1 6 21 18 18 15 28 24 22 16 16 19 18 18 17 16 15 14 13 12 12 12 11 10 9 8 8 7 7 6 5 5 4 5 6 6
10 14 8 7 14 16 15 5 9 13 9 4 2 5 4 14 18 15 17 29 24 20 18 16 18 19 17 17 16 15 14 12 12 11 11 10 10 8 7 7 6 5 4 3 4 3 2 4 6
7 7 7 11 20 23 23 6 9 4 9 9 3 8 4 9 9 17 19 27 22 22 21 19 19 18 18 17 16 16 14 13 12 12 11 10 9 8 7 6 5 4 3 2 3 2 3 4 7
10 8 12 18 21 22 21 7 10 6 4 6 7 1 14 10 15 19 21 21 20 21 20 20 21 19 17 17 17 16 14 12 11 11 10 10 8 8 8 7 5 3 2 2 3 4 5 6 8
10 11 15 16 21 22 21 12 5 3 13 7 8 8 6 12 12 14 19 20 21 21 19 17 19 19 18 16 16 16 15 13 12 10 9 9 8 8 8 7 6 4 1 2 4 6 6 6 7
17 14 19 22 23 24 20 20 11 4 11 9 11 3 7 13 12 14 16 19 21 22 19 15 16 16 17 16 16 15 15 13 12 10 9 8 8 7 7 7 6 4 2 3 4 4 4 4 5
14 15 25 22 19 26 16 9 18 7 10 14 8 4 9 32 12 14 17 18 23 20 18 16 14 16 13 13 15 15 14 14 13 11 11 9 8 8 8 7 7 5 3 3 3 5 6 8 8
19 16 17 24 26 24 19 5 16 15 9 3 6 10 20 15 14 14 15 17 18 19 17 16 17 15 14 14 12 13 15 13 11 10 10 9 7 8 9 6 9 6 5 7 8 9 11 9 10
18 16 24 24 22 24 26 13 19 19 8 13 6 15 17 15 14 14 15 14 16 20 19 17 16 15 15 13 13 10 11 9 8 9 9 8 8 6 10 9 10 9 11 10 10 12 11 10 6
21 19 22 20 24 24 26 26 13 13 10 12 11 13 12 14 11 15 16 17 18 18 16 19 16 15 16 13 9 7 6 7 7 10 9 8 4 5 6 5 5 4 9 5 8 8 4 6 5
22 24 21 23 25 25 24 22 16 15 9 18 8 9 14 9 11 14 16 18 18 18 17 19 18 15 13 13 10 9 9 8 8 8 9 4 3 4 2 2 5 4 3 2 1 3 4 5 4
23 21 22 22 21 22 24 21 17 18 19 23 12 6 9 10 11 11 12 14 16 16 15 17 18 13 6 14 10 9 8 9 8 7 6 5 4 1 3 5 4 3 3 4 4 5 3 5 5
20 21 22 20 23 22 19 20 19 19 20 20 13 18 9 17 14 13 13 12 14 14 14 13 16 10 6 8 9 7 6 6 6 6 7 6 4 3 5 3 0 4 4 4 3 2 2 4 2
19 22 21 21 19 20 21 21 24 22 22 22 19 14 15 12 19 16 12 9 8 11 12 8 12 11 6 5 6 5 4 6 5 5 6 6 6 4 6 3 2 3 2 4 3 4 1 3 2
21 17 19 20 23 20 19 22 22 22 21 24 23 19 18 18 11 18 18 10 9 15 14 8 12 12 8 6 4 4 5 4 7 6 5 6 6 5 1 3 4 2 1 1 2 3 5 4 2
15 18 21 22 22 21 24 26 22 22 22 22 20 21 18 17 19 10 15 14 11 12 15 12 8 15 11 7 5 5 6 5 6 7 6 6 6 5 3 4 4 3 2 3 5 4 3 2 3
17 20 22 20 20 22 25 25 24 19 20 20 19 21 21 20 20 10 18 16 14 13 14 14 9 13 12 8 6 5 6 4 5 5 6 6 5 6 3 5 4 4 2 5 4 4 4 3 3
20 20 23 21 19 17 20 18 17 15 23 22 18 17 18 20 20 14 15 21 21 14 15 12 9 9 9 8 9 7 6 4 5 5 11 7 6 6 3 5 3 1 5 4 2 2 2 4 5
19 21 20 20 22 21 19 19 17 16 19 19 19 17 14 10 12 19 11 20 22 20 18 15 11 11 9 7 7 7 7 4 5 7 7 7 7 6 3 6 4 5 4 4 3 3 3 2 4
18 18 19 19 19 21 21 22 20 20 21 20 21 16 14 15 17 19 20 22 17 19 21 22 19 12 11 8 6 4 7 4 5 8 7 5 7 6 4 5 5 3 4 4 1 1 3 2 1
17 18 19 19 16 16 17 16 19 20 23 23 22 20 18 17 17 13 25 23 23 24 22 21 21 17 13 9 9 8 9 8 5 7 7 6 8 7 6 6 6 4 1 4 2 1 4 3 2
20 17 18 19 18 18 21 16 17 18 19 22 23 24 22 19 18 16 17 25 26 24 22 19 18 25 27 20 8 8 7 8 5 7 9 6 6 8 8 6 7 4 4 4 4 2 4 3 3
19 20 19 18 16 17 19 18 17 18 19 21 17 17 22 10 20 19 19 23 23 22 22 21 23 23 24 18 17 13 14 10 8 9 10 8 5 5 7 7 7 5 3 5 2 3 4 4 5
18 14 12 15 15 17 20 22 17 20 21 20 2 11 13 10 8 10 6 19 25 28 25 24 25 26 22 19 22 25 23 9 7 1 6 9 8 6 6 7 7 5 5 6 5 3 4 1 3
23 19 14 20 16 19 21 19 18 20 21 17 7 10 7 5 8 12 12 9 1 15 28 25 23 20 20 22 23 19 20 12 10 7 8 7 10 10 10 8 8 7 7 6 6 3 3 4 2
16 16 18 21 20 17 19 25 22 14 3 9 12 13 11 4 1 3 8 7 10 8 7 8 12 21 23 20 17 17 16 20 24 30 23 12 8 9 12 10 9 7 7 6 6 4 5 5 3
10 13 14 13 19 18 22 20 16 17 10 14 7 9 9 2 5 4 4 8 9 9 6 26 32 31 25 26 24 19 18 16 16 14 18 15 9 12 14 12 10 10 7 6 6 4 4 5 3
15 13 17 14 16 13 15 11 15 21 16 14 20 22 11 9 8 7 6 9 12 16 18 16 13 37 28 24 20 18 16 14 9 10 13 15 11 16 16 13 10 9 11 7 6 5 7 5 5
23 14 16 10 12 16 17 11 10 13 17 23 14 13 22 16 12 8 8 10 11 15 17 17 15 8 10 14 17 7 14 15 13 13 15 17 13 16 17 17 14 10 9 8 8 7 7 6 6
Wind_Direction
232 237 245 260 259 227 265 180 200 97 100 146 60 343 7 64 48 103 140 112 120 128 131 130 131 130 133 133 130 129 130 132 129 126 124 122 123 115 111 109 104 99 92 80 71 55 40 27 13
245 256 250 276 258 279 287 62 333 111 88 62 347 95 51 102 99 127 136 121 123 127 139 135 133 132 135 135 132 131 132 134 133 131 127 131 129 124 118 110 106 105 102 95 80 51 17 356 345
257 270 276 236 252 260 274 345 78 100 97 68 194 26 64 85 119 136 127 117 125 132 135 131 134 134 135 136 135 133 135 136 137 133 130 134 131 128 117 109 105 101 97 90 90 75 17 332 323
239 226 244 261 268 270 265 122 359 331 108 145 255 149 115 15 105 115 141 125 134 141 132 140 137 138 138 139 138 136 138 139 143 137 139 137 135 131 125 121 119 115 95 49 36 26 336 322 314
237 273 255 259 265 262 280 282 120 299 200 172 182 338 145 118 93 126 140 136 143 144 132 144 140 140 141 143 141 138 139 141 143 141 142 138 140 135 134 136 140 133 100 19 345 338 320 318 310
228 233 258 261 257 259 264 272 291 6 289 111 175 164 228 122 126 142 148 142 146 127 140 143 140 141 143 143 140 139 140 143 143 141 140 141 145 145 146 148 151 142 117 332 316 314 314 312 302
245 246 249 256 268 271 271 16 285 195 275 238 142 203 12 359 126 151 155 148 138 127 135 146 146 141 142 143 143 142 141 143 143 141 144 152 157 159 161 161 158 155 179 281 299 310 306 287 279
238 254 261 260 261 267 279 194 307 283 277 93 142 205 135 219 151 156 161 156 138 137 140 152 150 153 154 154 147 145 147 149 148 151 157 169 175 180 187 182 177 176 196 216 241 269 268 262 260
241 249 253 252 262 273 272 125 286 275 248 173 142 83 102 119 148 171 161 166 148 140 148 158 160 159 163 158 157 149 153 153 154 161 172 179 202 184 174 147 154 177 189 211 220 236 249 254 262
230 242 245 257 265 265 275 269 201 276 211 265 157 112 124 143 163 177 171 169 157 148 153 161 165 164 168 158 151 167 165 171 182 183 177 218 223 160 170 154 175 189 208 213 231 247 254 271 249
242 239 256 257 260 279 279 282 314 267 266 233 221 188 129 146 184 183 180 180 174 172 160 164 167 168 174 150 158 172 168 179 192 192 175 215 221 154 176 160 185 202 224 218 220 234 236 357 351
245 243 244 261 278 286 283 291 282 283 270 285 83 109 136 159 196 211 188 186 177 177 165 163 158 171 186 137 161 175 174 183 185 191 180 222 161 181 229 114 172 201 129 123 321 63 46 310 282
252 250 256 252 264 273 281 289 293 268 275 283 305 162 153 164 207 216 219 202 179 169 165 166 150 166 174 146 160 178 181 185 179 153 172 224 178 223 101 48 22 32 1 45 3 56 17 307 347
259 259 260 257 261 261 275 273 276 270 269 271 277 287 229 175 189 199 241 220 183 160 154 165 148 157 168 146 165 177 192 161 136 147 178 223 142 136 98 118 140 50 29 32 346 69 253 283 331
257 270 272 267 255 262 266 255 252 259 269 270 262 244 277 276 173 184 217 226 155 146 142 131 141 153 173 160 173 128 150 138 124 143 157 118 96 86 120 106 106 87 134 283 22 321 288 4 346
260 264 265 255 259 244 239 258 251 246 249 251 254 242 232 254 234 174 183 211 159 149 147 162 155 161 182 159 162 143 152 157 153 119 122 113 115 117 198 151 106 83 270 63 65 46 342 43 11
248 253 248 256 253 256 238 240 244 251 259 241 240 253 214 235 250 171 167 177 126 147 151 155 172 169 177 160 164 162 169 206 122 131 132 146 147 162 204 119 93 263 92 54 21 36 4 352 324
240 243 243 247 261 256 237 246 234 238 253 254 249 224 242 206 227 220 160 168 147 141 151 155 184 170 168 165 171 184 164 138 120 128 136 162 149 166 203 90 116 273 81 66 52 20 340 343 335
269 276 278 286 284 246 262 267 243 255 266 248 262 241 231 228 213 221 170 161 150 141 146 160 147 143 164 181 183 170 186 149 131 141 136 152 150 137 138 113 160 36 75 54 352 287 53 23 1
256 257 262 275 285 292 287 280 249 248 276 269 243 257 257 225 210 212 162 149 154 150 154 157 159 161 178 196 204 172 178 144 140 126 140 157 147 141 160 137 181 113 110 78 30 355 319 96 14
248 261 273 274 277 273 267 265 272 264 250 266 275 267 258 259 227 200 150 150 154 156 170 165 158 166 177 184 220 168 160 139 158 141 148 160 147 147 167 152 125 96 120 136 194 349 324 4 130
255 261 251 262 264 265 267 257 247 242 242 244 248 251 245 243 257 242 184 175 169 170 171 175 154 139 181 194 226 201 182 171 176 153 155 158 153 162 155 154 127 157 121 114 138 41 345 7 97
268 248 265 274 261 260 251 265 269 264 252 237 229 229 237 233 240 238 205 190 170 174 176 184 170 168 187 172 195 224 205 166 155 159 151 168 169 164 150 145 136 160 161 123 88 72 351 350 4
244 263 263 257 264 253 258 247 259 265 267 270 268 237 219 238 221 225 245 171 172 178 175 180 176 179 169 171 155 234 236 171 174 169 157 165 172 170 159 163 153 155 115 121 134 81 36 17 15
261 258 246 245 240 250 245 249 264 258 263 269 283 45 53 53 342 343 321 177 176 185 179 182 184 186 188 181 172 190 183 177 53 238 177 163 173 178 181 159 155 154 149 146 132 162 122 236 80
234 234 254 255 251 261 258 249 246 245 244 248 116 93 72 30 18 359 353 6 253 219 203 186 180 174 170 175 180 182 177 154 104 291 241 194 186 177 160 170 164 160 155 152 143 146 193 133 185
281 276 272 280 285 288 288 284 286 276 343 187 191 140 113 81 16 342 336 347 347 351 133 353 234 187 171 174 186 195 182 160 179 185 208 192 168 166 165 164 166 153 167 158 159 190 195 165 161
290 291 298 286 275 252 243 272 289 4 313 218 230 135 97 201 207 92 347 354 336 306 257 163 185 220 179 180 184 187 183 188 186 169 181 180 178 161 162 165 171 159 159 165 167 196 167 168 217
304 289 264 272 269 268 275 286 31 5 8 86 11 347 55 357 20 52 32 23 356 350 352 353 170 211 173 180 182 178 186 202 194 142 174 166 187 149 156 164 169 173 163 168 173 204 156 188 204
294 288 292 284 275 297 299 253 92 51 11 23 64 339 345 351 6 8 35 40 20 2 350 341 338 321 196 166 167 188 201 197 200 162 187 170 162 147 161 171 162 176 175 173 174 203 169 181 188